STARLINK-1760

decayed
NORAD ID: 46341 Int'l Des: 2020-062 Owner: SPXS Country: US Constellation: starlink
LEOCIRCULAR
グループ

STARLINK-1760について

説明を読み込み中...

高度履歴

Altitude vs Time

uPlot chart will show altitude changes over time

軌道要素

1 46341U 20062S 25043.07254750 .14226997 12447-4 46978-3 0 9991
2 46341 53.0286 271.0132 0005990 248.9383 285.1947 16.44382374246314
Epoch: Feb 12, 2025 • Age: 5166 hours

現在のステータス

Position data unavailable
打ち上げ日 Sep 3, 2020
運用期間 5 years
落下予定日 Feb 12, 2025
タイプ internet

技術仕様

分類 Payload
質量 260.00 kg
乾燥質量 248.00 kg
総質量 260.00 kg
長さ 0.20 m
直径 2.80 m
スパン 9.00 m
形状 Box + pan
製造者 SPXS
バスタイプ Starlink
フェーズステータス Unknown Transfer Status
所有者/国 SPXS/US

大規模コンステレーション

Loading constellations...